Weather History for Charlevoix, MI

Change the Weather History Date:

Tuesday, December 7, 2010

  Actual Average Record
Temperature  
Mean Temperature 22 °F -  
Max Temperature 24 °F 37 °F 42 °F (2012)
Min Temperature 19 °F 26 °F 12 °F (2003)
Degree Days  
Heating Degree Days 44    
Moisture  
Dew Point 14 °F    
Average Humidity 70    
Maximum Humidity 86    
Minimum Humidity 59    
Precipitation  
Precipitation 0.00 in - - ()
Sea Level Pressure  
Sea Level Pressure 29.98 in    
Wind  
Wind Speed 20 mph (NW)    
Max Wind Speed 26 mph    
Max Gust Speed 38 mph    
Visibility 7 miles    
Events Snow    
Averages and records for this station are not official NWS values.
T = Trace of Precipitation, MM = Missing Value Source: NWS Daily Summary

Daily Weather History Graph

Daily Weather History Graph

Search for Another Location

Airport:

Trip Planner

Search our weather history database for the weather conditions in past years. The results will help you decide how hot, cold, wet, or windy it might be!

Date:

Astronomy

Dec. 07, 2010 Rise Set
Actual Time 8:06 AM EST 4:58 PM EST
Civil Twilight 7:32 AM EST 5:32 PM EST
Nautical Twilight 6:55 AM EST 6:09 PM EST
Astronomical Twilight 6:19 AM EST 6:45 PM EST
Moon 9:53 AM EST (12/7) 6:55 PM EST (12/7)
Length of Visible Light 9h 59m
Length of Day
8h 51m
Waxing Crescent, 4% of the Moon is Illuminated
Dec 7
Waxing Crescent
Dec 13
First Quarter
Dec 21
Full
Dec 27
Last Quarter
Jan 4
New

Hourly Weather History & Observations

Time (EST) Temp. Windchill Dew Point Humidity Pressure Visibility Wind Dir Wind Speed Gust Speed Precip Events Conditions
12:15 AM 21.2 °F 5.2 °F 15.8 °F 80% 29.93 in 2.0 mi North 21.9 mph 31.1 mph N/A Snow Light Snow
12:35 AM 21.2 °F 6.8 °F 15.8 °F 80% 29.93 in 2.0 mi North 17.3 mph 28.8 mph N/A Snow Light Snow
12:55 AM 21.2 °F 7.3 °F 17.6 °F 86% 29.93 in 1.2 mi NNW 16.1 mph 26.5 mph N/A Snow Light Snow
1:15 AM 21.2 °F 6.0 °F 15.8 °F 80% 29.93 in 1.5 mi NNW 19.6 mph 26.5 mph N/A Snow Light Snow
1:35 AM 21.2 °F 7.8 °F 15.8 °F 80% 29.93 in 2.0 mi NNW 15.0 mph 25.3 mph N/A Snow Light Snow
1:55 AM 21.2 °F 4.9 °F 14.0 °F 74% 29.93 in 3.0 mi NNW 23.0 mph 28.8 mph N/A Snow Light Snow
2:15 AM 21.2 °F 7.3 °F 14.0 °F 74% 29.93 in 2.5 mi NNW 16.1 mph 29.9 mph N/A Snow Light Snow
2:35 AM 21.2 °F 6.8 °F 12.2 °F 68% 29.94 in 3.0 mi NNW 17.3 mph 32.2 mph N/A Snow Light Snow
2:55 AM 21.2 °F 6.0 °F 14.0 °F 74% 29.94 in 2.0 mi NNW 19.6 mph 32.2 mph N/A Snow Light Snow
3:15 AM 21.2 °F 5.6 °F 14.0 °F 74% 29.94 in 4.0 mi NNW 20.7 mph 28.8 mph N/A Snow Light Snow
3:35 AM 21.2 °F 7.3 °F 12.2 °F 68% 29.94 in 5.0 mi NNW 16.1 mph 29.9 mph N/A   Haze
4:15 AM 21.2 °F 6.8 °F 14.0 °F 74% 29.94 in 7.0 mi NNW 17.3 mph 25.3 mph N/A Snow Light Snow
4:35 AM 21.2 °F 6.0 °F 14.0 °F 74% 29.94 in 3.0 mi NW 19.6 mph 31.1 mph N/A Snow Light Snow
4:55 AM 21.2 °F 5.2 °F 15.8 °F 80% 29.94 in 4.0 mi NW 21.9 mph 28.8 mph N/A Snow Light Snow
5:15 AM 21.2 °F 5.2 °F 14.0 °F 74% 29.94 in 7.0 mi NW 21.9 mph 29.9 mph N/A Snow Light Snow
5:35 AM 21.2 °F 6.4 °F 14.0 °F 74% 29.94 in 5.0 mi NNW 18.4 mph 25.3 mph N/A Snow Light Snow
5:55 AM 21.2 °F 6.4 °F 14.0 °F 74% 29.95 in 4.0 mi NNW 18.4 mph 26.5 mph N/A Snow Light Snow
6:15 AM 21.2 °F 6.0 °F 14.0 °F 74% 29.95 in 2.5 mi NW 19.6 mph 29.9 mph N/A Snow Light Snow
6:35 AM 21.2 °F 6.8 °F 14.0 °F 74% 29.96 in 2.0 mi NNW 17.3 mph 32.2 mph N/A Snow Light Snow
6:55 AM 21.2 °F 6.8 °F 14.0 °F 74% 29.97 in 2.0 mi NNW 17.3 mph 28.8 mph N/A Snow Light Snow
7:15 AM 19.4 °F 2.5 °F 14.0 °F 80% 29.97 in 4.0 mi NW 23.0 mph 29.9 mph N/A Snow Light Snow
7:35 AM 19.4 °F 2.8 °F 14.0 °F 80% 29.97 in 3.0 mi NW 21.9 mph 29.9 mph N/A Snow Light Snow
7:55 AM 21.2 °F 5.6 °F 12.2 °F 68% 29.97 in 4.0 mi NW 20.7 mph 38.0 mph N/A   Haze
8:15 AM 19.4 °F 1.8 °F 12.2 °F 74% 29.98 in 4.0 mi NW 25.3 mph 34.5 mph N/A Snow Light Snow
8:35 AM 19.4 °F 3.6 °F 12.2 °F 74% 29.98 in 7.0 mi NW 19.6 mph 32.2 mph N/A Snow Light Snow
8:55 AM 21.2 °F 4.2 °F 12.2 °F 68% 29.98 in 7.0 mi NW 25.3 mph 33.4 mph N/A   Overcast
9:15 AM 21.2 °F 5.2 °F 12.2 °F 68% 29.98 in 5.0 mi NW 21.9 mph 34.5 mph N/A   Haze
9:35 AM 21.2 °F 4.9 °F 12.2 °F 68% 29.98 in 5.0 mi NW 23.0 mph 31.1 mph N/A   Haze
9:55 AM 21.2 °F 4.5 °F 12.2 °F 68% 29.98 in 10.0 mi NW 24.2 mph 34.5 mph N/A   Overcast
10:15 AM 21.2 °F 4.2 °F 12.2 °F 68% 29.99 in 10.0 mi NW 25.3 mph 33.4 mph N/A   Overcast
10:35 AM 21.2 °F 5.2 °F 12.2 °F 68% 29.99 in 10.0 mi NW 21.9 mph 32.2 mph N/A   Overcast
10:55 AM 21.2 °F 5.2 °F 12.2 °F 68% 29.99 in 10.0 mi NW 21.9 mph 29.9 mph N/A   Overcast
11:15 AM 21.2 °F 6.0 °F 12.2 °F 68% 29.99 in 10.0 mi NNW 19.6 mph 33.4 mph N/A   Overcast
11:35 AM 21.2 °F 3.9 °F 10.4 °F 63% 29.98 in 10.0 mi NW 26.5 mph 34.5 mph N/A   Overcast
11:55 AM 21.2 °F 6.4 °F 12.2 °F 68% 29.98 in 10.0 mi NW 18.4 mph 34.5 mph N/A   Overcast
12:15 PM 23.0 °F 8.3 °F 12.2 °F 63% 29.99 in 10.0 mi NNW 19.6 mph 26.5 mph N/A   Mostly Cloudy
12:35 PM 23.0 °F 10.6 °F 12.2 °F 63% 29.98 in 10.0 mi NNW 13.8 mph 27.6 mph N/A   Overcast
1:15 PM 23.0 °F 9.2 °F 12.2 °F 63% 29.98 in 10.0 mi NW 17.3 mph 26.5 mph N/A   Overcast
1:35 PM 23.0 °F 8.7 °F 12.2 °F 63% 29.97 in 10.0 mi NW 18.4 mph 27.6 mph N/A   Overcast
1:55 PM 23.0 °F 9.6 °F 10.4 °F 59% 29.98 in 10.0 mi NW 16.1 mph 27.6 mph N/A   Mostly Cloudy
2:15 PM 23.0 °F 8.7 °F 14.0 °F 68% 29.98 in 10.0 mi NW 18.4 mph 26.5 mph N/A Snow Light Snow
2:35 PM 23.0 °F 8.3 °F 14.0 °F 68% 29.98 in 10.0 mi NW 19.6 mph 26.5 mph N/A   Overcast
2:55 PM 23.0 °F 8.3 °F 12.2 °F 63% 29.98 in 10.0 mi NW 19.6 mph 28.8 mph N/A   Mostly Cloudy
3:15 PM 23.0 °F 8.0 °F 12.2 °F 63% 29.98 in 10.0 mi NW 20.7 mph 29.9 mph N/A   Overcast
3:35 PM 24.8 °F 10.3 °F 14.0 °F 64% 29.98 in 10.0 mi NNW 20.7 mph 29.9 mph N/A   Overcast
3:55 PM 23.0 °F 8.7 °F 14.0 °F 68% 29.98 in 10.0 mi NNW 18.4 mph 27.6 mph N/A   Overcast
4:15 PM 23.0 °F 7.6 °F 15.8 °F 74% 29.99 in 10.0 mi NNW 21.9 mph 31.1 mph N/A Snow Light Snow
4:35 PM 24.8 °F 10.7 °F 15.8 °F 69% 29.99 in 7.0 mi NNW 19.6 mph 26.5 mph N/A Snow Light Snow
4:55 PM 24.8 °F 10.7 °F 15.8 °F 69% 29.99 in 7.0 mi NW 19.6 mph 26.5 mph N/A Snow Light Snow
5:15 PM 24.8 °F 10.0 °F 15.8 °F 69% 30.00 in 10.0 mi NW 21.9 mph 33.4 mph N/A   Overcast
5:35 PM 24.8 °F 10.3 °F 15.8 °F 69% 30.00 in 7.0 mi NW 20.7 mph 28.8 mph N/A Snow Light Snow
5:55 PM 24.8 °F 10.0 °F 17.6 °F 74% 30.01 in 5.0 mi NW 21.9 mph 29.9 mph N/A Snow Light Snow
6:15 PM 24.8 °F 9.3 °F 15.8 °F 69% 30.01 in 10.0 mi NW 24.2 mph 32.2 mph N/A   Overcast
6:55 PM 24.8 °F 9.6 °F 14.0 °F 64% 30.02 in 7.0 mi NW 23.0 mph 31.1 mph N/A Snow Light Snow
7:15 PM 24.8 °F 9.0 °F 15.8 °F 69% 30.02 in 7.0 mi NW 25.3 mph 33.4 mph N/A   Overcast
7:35 PM 24.8 °F 9.6 °F 15.8 °F 69% 30.02 in 10.0 mi NW 23.0 mph 31.1 mph N/A   Overcast
7:55 PM 24.8 °F 11.1 °F 15.8 °F 69% 30.02 in 10.0 mi NNW 18.4 mph 27.6 mph N/A   Overcast
8:15 PM 24.8 °F 11.1 °F 14.0 °F 64% 30.02 in 10.0 mi NNW 18.4 mph 29.9 mph N/A   Overcast
8:35 PM 24.8 °F 9.0 °F 15.8 °F 69% 30.02 in 10.0 mi NW 25.3 mph 36.8 mph N/A Snow Light Snow
8:55 PM 24.8 °F 9.0 °F 15.8 °F 69% 30.02 in 7.0 mi NW 25.3 mph 31.1 mph N/A Snow Light Snow
9:15 PM 24.8 °F 10.7 °F 15.8 °F 69% 30.02 in 10.0 mi NW 19.6 mph 29.9 mph N/A   Overcast
9:35 PM 24.8 °F 10.0 °F 15.8 °F 69% 30.01 in 7.0 mi NW 21.9 mph 31.1 mph N/A Snow Light Snow
9:55 PM 24.8 °F 10.7 °F 14.0 °F 64% 30.01 in 10.0 mi NW 19.6 mph 28.8 mph N/A   Overcast
10:15 PM 24.8 °F 11.1 °F 15.8 °F 69% 30.01 in 10.0 mi NW 18.4 mph 28.8 mph N/A   Overcast
10:35 PM 24.8 °F 10.7 °F 15.8 °F 69% 30.01 in 10.0 mi NW 19.6 mph 31.1 mph N/A   Overcast
10:55 PM 24.8 °F 11.5 °F 14.0 °F 64% 30.01 in 10.0 mi NW 17.3 mph 29.9 mph N/A   Mostly Cloudy
11:15 PM 24.8 °F 11.1 °F 15.8 °F 69% 30.01 in 10.0 mi NW 18.4 mph 26.5 mph N/A Snow Light Snow
11:35 PM 24.8 °F 10.3 °F 15.8 °F 69% 30.01 in 10.0 mi NW 20.7 mph 27.6 mph N/A Snow Light Snow